This is the latest recevied weather packets stored in our database for station/object E24QND-2. If no packets are shown the sender has not sent any weather packets the latest 10 day(s).
| Time | Temp. | Humidity | Pressure | Rain* | Wind** | Luminosity | Snow |
|---|---|---|---|---|---|---|---|
| 1787985536 | 32.78° C | 1% | - | - | - | 0 W/m² | - |
| 1787984312 | 32.78° C | 99% | - | - | - | 0 W/m² | - |
| 1787983087 | 32.78° C | 1% | - | - | - | 0 W/m² | - |
| 1787981862 | 32.78° C | 83% | - | - | - | 0 W/m² | - |
| 1787980638 | 31.67° C | 1% | - | - | - | 0 W/m² | - |
| 1787979413 | 31.11° C | 24% | - | - | - | 0 W/m² | - |
| 1787978189 | 31.11° C | 99% | - | - | - | 0 W/m² | - |
| 1787976964 | 31.67° C | 99% | - | - | - | 0 W/m² | - |
| 1787975740 | 30.56° C | 99% | - | - | - | 0 W/m² | - |
| 1787974515 | 30° C | 99% | - | - | - | 0 W/m² | - |
| 1787973291 | 30° C | 99% | - | - | - | 0 W/m² | - |
| 1787972066 | 29.44° C | 99% | - | - | - | 0 W/m² | - |
| 1787970842 | 29.44° C | 1% | - | - | - | 0 W/m² | - |
| 1787969617 | 28.33° C | 1% | - | - | - | 0 W/m² | - |
| 1787968392 | 28.33° C | 1% | - | - | - | 0 W/m² | - |
| 1787967168 | 27.78° C | 1% | - | - | - | 0 W/m² | - |
| 1787965943 | 27.22° C | 99% | - | - | - | 0 W/m² | - |
| 1787964719 | 26.67° C | 1% | - | - | - | 0 W/m² | - |
| 1787963494 | 26.67° C | 99% | - | - | - | 0 W/m² | - |
| 1787962270 | 26.67° C | 1% | - | - | - | 0 W/m² | - |
| 1787961045 | 26.67° C | 1% | - | - | - | 0 W/m² | - |
| 1787959821 | 26.67° C | 1% | - | - | - | 0 W/m² | - |
| 1787958596 | 26.11° C | 1% | - | - | - | 0 W/m² | - |
| 1787957371 | 26.11° C | 1% | - | - | - | 0 W/m² | - |
| 1787956147 | 26.11° C | 1% | - | - | - | 0 W/m² | - |
* Rain since midnight (hover to see other rain measurements)
** Current wind speed in m/s (hover to see current wind gust speed)